Miscellaneous Local Product
Issued by NWS Hastings, NE

Home | Current Version | Previous Version | Text Only | Print | Product List | Glossary Off
Versions: 1 2 3 4 5 6 7 8 9 10 11 12 13 14 15 16 17 18 19 20 21 22 23 24 25 26 27 28 29 30 31 32 33 34 35 36 37 38 39 40 41 42 43 44 45 46 47 48 49 50

000
AXUS43 KGID 262102
MISGRI

GID CWA HOURLY WEATHER ROUNDUP
NATIONAL WEATHER SERVICE HASTINGS NE
400 PM CDT TUE AUG 26 2014

NOTE: "FAIR" INDICATES FEW OR NO CLOUDS BELOW 12,000 FEET WITH NO
SIGNIFICANT WEATHER AND/OR OBSTRUCTIONS TO VISIBILITY.

...SOUTH CENTRAL NEBRASKA...

CITY           SKY/WX    TMP DP  RH WIND       PRES   REMARKS
GRAND ISLAND   PTSUNNY   77  66  68 E5        30.13F
HASTINGS       PTSUNNY   78  65  63 NE5       30.13R
KEARNEY        PTSUNNY   75  68  78 N5        30.14F
ORD            PTSUNNY   73  62  68 E9        30.13F
YORK           PTSUNNY   77 N/A N/A E7        30.11F
LEXINGTON      MOSUNNY   77  67  71 SE6       30.14F
HOLDREGE       PTSUNNY   77  68  74 CALM      30.13F
HEBRON         MOSUNNY   86  62  44 S7        30.08F

...NEBRASKA PANHANDLE...

CITY           SKY/WX    TMP DP  RH WIND       PRES   REMARKS
CHADRON        PTSUNNY   84  57  39 NE7       30.06F
ALLIANCE       MOSUNNY   82  57  42 SE13G20   30.12F
SCOTTSBLUFF    PTSUNNY   88  54  31 SE9G17    30.09F
SIDNEY         PTSUNNY   82  58  43 S17G23    30.16F

...WESTERN AND NORTH CENTRAL NEBRASKA...

CITY           SKY/WX    TMP DP  RH WIND       PRES   REMARKS
VALENTINE      MOSUNNY   80  58  46 S12G21    30.11F
AINSWORTH      MOSUNNY   75  61  60 SE8       30.14F
ONEILL         MOSUNNY   75  59  56 E10       30.15F
BROKEN BOW     MOSUNNY   79  64  60 SE13      30.14F
IMPERIAL       CLOUDY    75  63  66 SE14      30.15F
NORTH PLATTE   SUNNY     80  61  52 SE13      30.12F
MCCOOK         MOSUNNY   81  63  54 SE10      30.12F

...EASTERN NEBRASKA...

CITY           SKY/WX    TMP DP  RH WIND       PRES   REMARKS
NORFOLK        PTSUNNY   73  63  70 E10       30.15F
SO SIOUX CITY  PTSUNNY   73  60  63 NE6       30.15F
TEKAMAH        PTSUNNY   76  65  68 E3        30.13F
COLUMBUS       PTSUNNY   75  64  69 E7        30.14F
ALBION         PTSUNNY   72  64  75 E6        30.15F
OMAHA EPPLEY   PTSUNNY   76  65  68 E6        30.12F
OFFUTT AFB     PTSUNNY   77  71  82 NE6       30.12F
MILLARD        PTSUNNY   78  67  68 E6        30.11F
LINCOLN        MOSUNNY   78  67  68 E9        30.12F
NEBRASKA CITY  MOSUNNY   79  68  69 E6        30.12F
BEATRICE       MOSUNNY   84  71  63 NE7       30.08F
FALLS CITY     SUNNY     86  68  54 SE6       30.09F

...NORTHERN KANSAS...

CITY           SKY/WX    TMP DP  RH WIND       PRES   REMARKS
GOODLAND       MOSUNNY   81  60  48 SE13G20   30.14F
HILL CITY      MOSUNNY   88  63  43 SE12      30.09F
NORTON         CLEAR     82  59  44 E5        30.09F
PHILLIPSBURG   SUNNY     90  61  37 SE13G21   30.07F
SMITH CENTER   SUNNY     88  64  45 SE14G20   30.08F
BELOIT         SUNNY     90  68  48 SE6       30.06F HX  93
HAYS           MOSUNNY   88  64  45 S10       30.09F
RUSSELL        SUNNY     87  65  47 S8        30.07F
CONCORDIA      MOSUNNY   87  72  60 E6        30.07F HX  93
SALINA         PTSUNNY   87  65  47 SE13      30.06F
TOPEKA         SUNNY     92  71  50 NE8       30.04F HX  98



USA.gov is the U.S. government's official web portal to all federal, state and local government web resources and services.